{"data":{"norad_id":53005,"intl_designator":"2022-076V","name":"STARLINK-4288","alt_names":[],"object_type":"PAYLOAD","status":"ACTIVE","operator":null,"country":"US","launch_date":"2022-07-07","launch_site_code":"AFETR","launch_vehicle":null,"mission":null,"orbit_class":"UNKNOWN","rcs_meters":null,"size_class":null,"mass_kg":null,"dimensions":null,"purposes":["comms"],"wikipedia_slug":null,"has_3d_model":false,"image_url":null,"decayed_at":null,"tle_current":{"epoch":"2026-09-20T18:52:48.637056Z","epoch_age_seconds":72976,"freshness":"FRESH","line1":"1 53005U 22076V   26263.78667404  .00000352  00000+0  21558-4 0  9995","line2":"2 53005  53.1579 282.7365 0000944  71.2641 288.8464 15.34388260232519","mean_motion":15.3438826,"eccentricity":9.44e-5,"inclination_deg":53.1579,"raan_deg":282.7365,"arg_perigee_deg":71.2641,"mean_anomaly_deg":288.8464,"bstar":2.1558e-5,"rev_number":23251,"period_min":93.848476134717,"perigee_km":462.09235557101,"apogee_km":463.38391279635,"semimajor_km":6840.8751341837,"source":"CELESTRAK","updated_at":"2026-09-21T09:00:32.712591Z"}}}